Tracking 27188 objects as of 1-Apr-2023
HD Live streaming from Space Station
objects crossing your sky now

IUE

Track IUE now!
IUE is classified as:


NORAD ID: 10637
Int'l Code: 1978-012A
Perigee: 29,131.3 km
Apogee: 42,569.1 km
Inclination: 39.3 °
Period: 1,439.0 minutes
Semi major axis: 42221 km
RCS: 5.9851 m2 (large)
Launch date: January 26, 1978
Source: United States (US)
Launch site: AIR FORCE EASTERN TEST RANGE (AFETR)

The International Ultraviolet Explorer (IUE, formerly SAS-D) satellite was a spaceborne ultraviolet astronomical observatory for use as an international facility. IUE was shut down at 18:42 UT, 30 September 1996.
Your satellite tracking list
Your tracking list is empty




NASA's NSSDC Master Catalog

Two Line Element Set (TLE):
1 10637U 78012A   23089.42665340 -.00000275  00000-0  00000-0 0  9992
2 10637  39.3390 305.8749 1591353 245.4376  95.4673  1.00070603117314
Source of the keplerian elements: AFSPC